Temperature
16 15 15 15 15 15 15 15 15 15 15 15 15 15 15 15 15 15 15 15 14 15 15 15 15 15 15 15 15 15 15 15 15 15 15 15 15 15 15 15 15 15 15
16 15 15 15 15 15 15 15 15 15 15 15 15 15 14 14 14 14 14 14 14 14 14 14 15 15 15 15 15 15 15 15 15 15 15 15 15 15 15 15 15 15 15
16 15 15 15 15 15 15 15 15 15 15 15 15 14 14 14 14 14 14 14 14 14 14 14 14 14 14 14 14 14 15 14 14 15 15 15 15 15 15 15 15 15 15
15 15 15 15 15 15 15 15 15 15 15 15 14 14 14 14 14 14 14 14 14 14 14 14 14 14 14 14 14 14 14 14 14 14 14 14 14 14 14 14 14 14 14
15 15 15 15 15 15 15 15 15 15 15 14 14 14 14 14 14 14 14 14 14 14 14 14 14 14 14 13 13 13 14 14 14 14 14 14 14 14 14 14 14 14 14
15 15 15 15 15 15 15 15 15 15 14 14 14 14 14 14 14 14 14 14 14 14 14 14 14 14 13 13 13 13 13 13 13 13 13 13 13 14 14 14 14 14 14
15 15 15 15 15 15 15 15 15 14 14 14 14 14 14 14 14 13 13 13 13 13 13 13 13 13 13 13 13 13 13 13 13 13 13 13 13 13 13 13 13 13 13
15 15 15 15 15 15 15 15 15 14 14 14 14 14 14 13 13 13 13 13 13 13 13 13 13 13 13 13 13 13 13 13 13 13 13 13 13 13 13 13 13 13 13
15 15 15 15 15 15 15 15 15 14 14 14 14 14 14 13 13 13 13 13 13 13 13 13 13 13 13 13 13 13 13 13 13 13 13 12 13 13 13 12 12 12 12
15 15 15 15 15 15 15 15 14 14 14 14 14 14 14 14 13 13 13 13 13 13 13 13 13 13 13 13 13 13 13 13 13 13 12 12 12 12 12 12 12 12 12
15 15 15 15 15 15 15 15 14 14 14 14 14 14 14 14 13 13 12 13 12 12 13 13 13 13 13 13 13 13 12 12 13 12 12 12 12 12 12 12 12 12 12
15 15 15 15 15 15 14 14 14 14 14 14 14 14 14 14 14 13 13 13 12 12 12 12 12 12 12 12 12 12 12 12 12 12 12 12 12 12 12 11 11 11 11
15 15 15 15 15 14 14 14 14 14 14 14 14 14 14 14 14 14 13 13 13 12 12 12 12 12 12 12 12 12 12 12 12 12 12 12 12 11 11 11 11 11 11
15 15 15 15 14 14 15 15 14 14 14 14 14 14 14 14 14 14 14 13 13 12 12 12 12 12 12 12 12 12 12 11 11 12 12 11 11 11 11 11 11 10 10
15 15 14 14 14 14 15 15 14 14 14 14 14 14 14 14 14 14 13 13 13 13 12 12 12 12 12 12 12 11 11 11 11 11 11 11 11 11 10 10 10 10 10
15 15 14 14 14 14 14 14 14 14 14 14 14 14 14 14 14 14 13 13 13 13 13 12 12 12 12 12 11 11 11 11 11 11 10 10 10 10 10 10 10 10 10
14 14 14 14 14 14 14 14 14 14 14 14 14 14 14 14 14 13 13 13 13 13 13 12 12 12 11 11 11 11 11 11 10 10 10 10 10 10 10 10 9 9 9
14 14 14 14 14 14 14 14 14 14 14 14 14 14 14 14 14 13 13 13 13 13 12 12 12 12 11 11 11 11 11 10 10 10 10 10 10 10 9 9 9 9 9
14 14 14 14 14 14 14 14 14 14 14 14 14 14 14 14 13 13 13 13 13 12 12 12 12 12 11 11 11 11 10 10 10 10 10 10 9 9 9 9 9 9 8
14 14 14 14 14 14 14 14 14 14 14 14 14 14 13 13 13 13 13 13 12 12 12 12 12 11 11 11 11 11 10 10 10 10 10 9 9 9 9 9 9 8 8
14 14 14 14 14 14 14 14 14 14 14 14 13 13 13 13 13 13 13 13 12 12 12 12 11 11 11 11 11 10 10 10 10 10 10 9 9 9 9 9 8 8 8
14 14 14 14 14 14 14 14 14 14 13 13 13 13 13 13 13 13 12 12 12 12 12 12 11 11 11 11 11 10 10 10 10 9 9 9 9 9 9 8 8 8 8
14 14 14 14 14 14 14 13 13 13 13 13 13 13 13 13 13 12 12 12 12 12 11 11 11 11 11 11 10 10 10 10 10 9 9 9 9 9 8 8 8 8 8
14 14 14 14 13 13 13 13 13 13 13 13 13 13 13 13 12 12 12 12 12 12 11 11 11 11 11 10 10 10 10 9 9 9 9 9 9 8 8 8 8 8 7
14 14 13 13 13 13 13 13 13 13 13 13 12 12 12 12 12 12 12 12 12 11 11 11 11 11 10 10 10 10 9 9 9 9 9 8 8 8 8 8 8 7 7
13 13 13 13 13 13 13 13 13 12 12 12 12 12 12 12 12 11 11 11 11 11 11 11 11 10 10 10 10 10 9 9 9 9 8 8 8 8 7 8 7 7 7
Wind_Speed
3 4 4 6 7 7 7 6 7 7 8 8 9 8 8 8 8 8 8 10 10 9 9 9 8 8 8 9 9 10 10 11 11 9 9 8 8 8 8 8 8 8 8
4 4 4 5 5 6 7 7 6 6 6 6 7 8 7 8 8 8 8 9 10 10 10 10 9 9 9 10 11 11 11 11 12 12 11 10 10 9 9 9 8 8 8
5 5 4 3 4 6 7 7 7 7 5 6 6 7 7 7 8 9 9 9 9 11 11 10 11 10 11 11 11 12 13 13 13 13 13 12 11 11 11 10 9 9 8
6 6 4 3 5 6 6 5 4 5 5 5 4 5 6 7 8 9 9 10 10 9 11 12 11 11 12 12 12 12 13 14 14 14 14 14 13 12 12 12 11 10 10
5 6 4 4 6 5 4 4 4 3 4 4 4 5 5 6 6 8 9 10 11 11 10 11 12 13 12 12 12 12 13 14 14 14 14 14 13 13 12 12 12 11 11
5 6 5 5 6 4 3 3 4 4 3 3 5 5 5 5 6 7 7 9 10 11 11 11 11 11 13 12 12 11 12 13 13 13 13 13 13 13 12 11 11 10 10
4 5 4 4 4 3 3 4 4 4 3 2 3 4 4 5 6 6 6 7 8 10 11 11 11 11 10 12 12 12 12 12 12 13 13 13 12 12 11 11 10 10 10
3 4 4 3 4 3 4 3 3 2 2 2 2 3 2 4 4 5 5 5 6 7 8 9 10 10 10 10 11 12 12 11 11 12 12 12 12 12 11 11 11 10 10
2 3 4 4 4 4 4 3 4 4 2 1 2 3 3 1 1 3 4 4 5 4 5 7 8 8 8 9 10 11 11 11 11 11 11 12 12 12 12 11 10 10 9
2 2 3 4 3 3 3 3 3 3 3 2 1 1 2 3 2 1 3 3 4 4 4 5 6 7 7 8 9 10 10 11 11 11 11 11 12 12 12 11 12 11 10
2 1 2 3 3 2 3 3 3 3 3 3 2 2 2 2 2 2 0 2 3 3 3 3 4 5 6 7 7 9 10 10 10 11 11 11 11 11 11 11 11 11 11
2 2 2 2 2 2 2 3 3 3 2 2 2 2 3 2 2 3 2 1 1 2 3 3 3 4 4 5 6 7 8 9 9 10 11 11 10 10 11 11 11 11 11
1 1 1 1 1 2 3 3 2 2 2 3 3 2 2 2 3 3 3 2 0 1 2 2 3 3 3 4 5 6 7 8 8 9 10 10 10 10 11 11 11 11 11
1 1 0 1 2 2 3 3 2 1 2 2 2 2 1 2 3 4 4 4 2 1 2 2 2 3 2 3 4 5 6 7 8 8 8 9 9 9 10 10 11 11 11
1 1 1 1 1 2 3 3 2 1 2 1 2 2 1 1 2 2 3 4 4 2 1 2 1 2 2 2 3 4 4 5 6 7 7 7 8 8 9 10 10 10 11
1 1 1 1 1 2 2 2 2 2 2 1 1 2 1 1 2 2 3 2 3 4 2 1 1 1 2 2 3 4 4 5 5 6 6 6 7 7 8 8 8 9 9
1 1 1 1 1 2 2 2 2 2 2 1 1 2 1 1 2 2 2 2 2 3 3 1 1 1 2 2 3 4 4 4 4 5 5 5 6 6 6 7 7 7 7
2 2 2 2 2 2 2 2 2 2 2 2 1 2 1 2 2 2 2 2 2 2 3 2 0 1 1 1 2 3 3 3 3 3 3 4 4 5 5 5 5 5 6
2 2 2 2 2 2 2 2 2 2 2 2 2 2 2 3 2 2 2 2 2 2 2 3 1 0 1 1 2 2 3 3 2 2 2 2 2 3 3 3 3 3 4
2 2 2 2 2 2 2 2 2 2 2 2 2 2 3 4 4 4 3 3 3 3 3 3 1 0 0 0 1 1 1 1 1 2 2 2 1 1 1 1 1 2 2
3 2 2 2 2 2 2 3 3 3 2 2 1 1 2 4 4 4 3 3 4 3 3 2 1 0 1 1 2 2 2 0 1 1 1 2 2 2 2 2 1 1 1
2 2 2 3 3 2 3 5 4 3 3 2 2 1 1 2 3 4 5 6 6 5 4 3 2 2 3 3 2 3 2 1 1 1 1 1 1 1 3 3 3 2 1
3 3 3 3 3 3 4 5 5 4 3 3 2 2 1 2 3 2 3 4 4 5 6 5 4 5 4 5 4 3 3 3 3 1 1 1 1 2 3 3 3 3 2
3 3 3 3 3 3 4 5 5 3 2 2 2 3 3 2 2 3 3 2 1 2 4 4 5 5 5 5 6 5 5 3 1 0 2 1 1 2 2 4 4 3 3
3 3 3 3 3 3 4 5 5 3 2 2 2 2 3 3 4 5 4 3 2 2 3 4 5 4 4 5 6 4 3 2 2 2 2 2 1 1 1 2 4 3 3
4 3 3 3 3 3 4 5 5 3 3 2 1 2 4 4 5 5 4 4 3 4 2 1 1 2 2 3 6 5 5 4 2 2 2 3 2 1 1 1 3 3 2
Wind_Direction
79 73 66 66 66 74 78 76 75 72 65 60 61 60 53 46 41 38 31 37 43 50 54 53 53 54 56 56 55 53 49 42 44 57 66 64 63 64 63 64 66 69 68
105 94 81 73 70 76 83 83 81 77 70 68 60 58 55 48 42 37 32 30 37 45 50 52 54 57 59 58 57 56 53 49 51 57 60 62 63 62 60 63 65 66 65
115 110 99 84 81 87 90 86 80 77 71 67 57 53 52 47 44 40 37 37 36 41 47 51 53 58 62 63 62 59 57 55 55 57 59 61 61 61 60 62 64 64 63
120 113 107 97 98 97 94 90 78 74 65 61 55 44 46 44 42 44 45 44 43 41 41 47 51 57 61 62 63 63 61 59 57 56 55 57 60 60 61 60 62 61 61
121 119 114 110 107 100 93 97 80 87 80 70 66 52 42 40 38 45 46 45 44 44 44 44 49 52 58 60 62 62 62 62 60 58 57 58 59 60 59 58 60 61 61
123 124 118 119 117 106 90 90 91 75 80 78 75 60 44 39 42 41 40 43 43 46 49 50 49 48 52 58 61 61 62 61 61 61 60 60 60 59 58 57 59 62 64
124 128 125 125 125 121 124 121 108 91 72 79 78 52 33 38 43 37 37 43 41 45 50 51 52 52 47 48 53 58 62 62 61 61 59 59 59 59 58 56 56 59 61
125 138 137 142 139 128 126 127 124 112 83 66 99 89 34 13 16 26 28 38 35 44 47 49 52 51 49 46 47 54 57 59 61 61 59 57 57 56 56 53 50 53 58
115 128 143 145 149 152 158 158 150 140 142 62 77 124 128 188 339 355 16 30 30 37 36 44 48 48 48 47 45 47 52 56 59 60 59 57 55 54 53 49 47 52 59
91 130 146 147 151 159 164 175 165 152 146 153 87 70 127 149 144 360 348 5 23 33 27 38 40 42 47 48 47 49 52 55 56 58 58 56 54 53 49 45 48 54 60
40 79 141 141 149 158 169 169 159 163 160 163 162 145 101 83 105 143 231 337 3 8 21 28 36 39 44 51 53 55 56 55 56 57 57 56 54 52 48 46 49 53 58
5 29 105 132 147 158 168 174 169 164 167 161 165 159 156 152 164 150 169 210 346 339 9 23 29 31 41 51 57 60 60 59 58 57 56 55 53 51 50 49 49 51 54
332 330 69 143 157 167 160 153 150 155 158 161 173 184 183 176 157 152 147 157 95 339 357 7 13 24 38 51 59 66 66 66 62 59 57 54 52 51 49 46 46 48 51
244 258 149 158 163 157 147 140 139 157 142 159 169 167 176 188 166 163 158 149 123 16 7 327 341 10 27 59 65 75 71 70 68 64 61 58 55 52 49 46 46 47 48
242 213 167 180 162 149 144 142 147 160 137 157 171 162 171 193 178 172 159 155 151 159 270 299 325 331 5 74 78 87 83 74 71 67 64 60 58 56 55 54 52 50 50
202 152 142 145 141 141 141 138 144 138 125 150 154 139 152 169 152 149 154 152 152 158 181 240 258 307 20 69 80 94 92 80 68 65 65 64 64 63 61 59 55 51 49
180 176 170 152 138 131 133 141 151 149 147 151 139 143 156 140 128 132 133 133 137 139 162 235 309 356 46 49 52 69 80 76 68 67 67 71 70 65 61 59 54 50 46
189 185 162 146 148 139 142 152 164 163 162 167 180 147 167 139 129 131 132 139 147 147 156 178 301 14 29 39 54 58 52 63 63 61 71 74 73 69 62 59 55 51 49
187 167 154 166 178 170 165 166 163 165 168 180 181 175 183 152 153 149 143 143 141 128 127 152 174 67 30 41 62 54 48 31 44 43 62 67 76 76 63 56 55 52 49
186 179 172 180 181 175 171 165 155 153 154 163 177 186 185 176 178 170 163 159 141 125 121 129 139 112 95 114 111 127 44 31 23 24 38 45 48 50 24 29 40 35 32
199 185 169 177 173 171 187 174 165 155 153 156 174 188 188 180 179 171 166 166 152 144 141 141 160 153 213 182 199 198 187 201 357 10 16 7 9 353 321 300 290 303 341
197 175 181 183 185 203 197 187 169 160 158 162 180 194 188 180 173 173 171 166 162 162 173 174 188 202 225 216 198 185 173 155 278 309 157 313 5 287 298 282 272 251 258
191 189 198 185 193 206 197 187 178 168 172 187 193 192 192 168 164 160 163 164 175 184 181 180 190 213 215 210 183 182 186 188 213 227 166 268 285 272 288 283 271 251 250
191 199 206 197 197 212 194 185 178 167 179 204 204 195 188 204 173 158 150 149 203 222 205 197 205 218 212 195 186 190 190 183 217 208 153 224 257 262 298 294 277 258 255
204 205 198 194 200 221 200 187 168 156 176 217 221 201 194 205 195 168 154 173 234 269 243 220 222 223 216 195 170 140 144 152 239 245 183 192 228 259 291 302 300 290 264
210 205 202 201 200 217 206 194 176 164 180 211 225 220 204 203 198 180 177 182 216 254 252 248 251 251 234 203 185 179 184 188 202 235 204 185 198 186 284 282 308 310 304
Height
1548 1548 1548 1548 1548 1548 1548 1548 1548 1548 1548 1547 1547 1547 1547 1547 1547 1546 1546 1546 1546 1545 1545 1544 1544 1544 1543 1543 1542 1541 1540 1538 1533 1531 1533 1536 1537 1538 1538 1539 1539 1539 1539
1550 1550 1550 1550 1550 1550 1550 1550 1549 1549 1549 1549 1549 1548 1548 1548 1548 1547 1547 1547 1546 1546 1546 1545 1545 1544 1543 1543 1542 1542 1541 1539 1537 1535 1535 1536 1537 1538 1538 1538 1539 1539 1539
1551 1551 1551 1551 1551 1551 1551 1551 1551 1551 1551 1550 1550 1550 1549 1549 1549 1548 1548 1548 1547 1547 1546 1546 1546 1545 1544 1544 1543 1543 1542 1541 1540 1539 1538 1538 1538 1538 1538 1538 1538 1538 1539
1553 1553 1553 1553 1553 1553 1553 1553 1552 1552 1552 1552 1552 1551 1551 1551 1550 1550 1549 1549 1548 1548 1547 1547 1546 1546 1545 1545 1545 1544 1543 1542 1541 1540 1540 1539 1539 1539 1538 1538 1538 1538 1538
1554 1554 1554 1554 1554 1554 1554 1554 1554 1554 1554 1554 1553 1553 1553 1552 1552 1551 1551 1550 1550 1549 1548 1548 1547 1547 1547 1546 1546 1545 1545 1544 1543 1542 1541 1540 1540 1539 1539 1539 1538 1538 1538
1554 1554 1554 1555 1555 1555 1555 1555 1555 1555 1555 1555 1555 1555 1554 1554 1554 1553 1552 1552 1551 1550 1550 1549 1549 1548 1548 1548 1547 1547 1546 1545 1544 1543 1542 1541 1541 1540 1540 1539 1539 1538 1538
1555 1555 1555 1555 1556 1556 1556 1557 1557 1557 1556 1556 1556 1556 1556 1556 1555 1555 1554 1554 1552 1552 1551 1551 1550 1550 1549 1549 1548 1548 1547 1546 1545 1544 1544 1543 1542 1541 1540 1540 1539 1538 1538
1555 1555 1555 1556 1556 1556 1557 1557 1557 1557 1557 1557 1557 1557 1557 1558 1557 1556 1556 1555 1554 1554 1553 1553 1552 1551 1551 1550 1550 1549 1548 1547 1547 1546 1545 1544 1543 1542 1541 1540 1538 1536 1536
1555 1555 1556 1556 1556 1557 1557 1557 1558 1558 1558 1558 1558 1559 1558 1558 1558 1558 1557 1556 1556 1555 1555 1554 1554 1553 1552 1552 1551 1550 1550 1549 1548 1547 1546 1545 1544 1543 1542 1540 1537 1534 1534
1555 1555 1555 1556 1556 1557 1557 1557 1558 1558 1558 1558 1558 1558 1559 1559 1559 1558 1558 1557 1557 1556 1556 1555 1555 1554 1554 1553 1552 1551 1551 1550 1549 1548 1547 1546 1545 1544 1542 1540 1536 1534 1533
1555 1555 1555 1556 1556 1556 1557 1557 1557 1558 1558 1558 1558 1558 1558 1558 1558 1558 1558 1558 1557 1557 1556 1556 1556 1555 1555 1554 1553 1553 1552 1551 1550 1549 1548 1547 1546 1545 1543 1541 1538 1537 1536
1554 1555 1555 1555 1556 1556 1556 1557 1557 1557 1557 1557 1558 1558 1558 1558 1558 1557 1557 1557 1557 1557 1557 1556 1556 1556 1555 1555 1554 1553 1553 1552 1551 1550 1549 1548 1547 1546 1544 1542 1541 1539 1538
1554 1554 1554 1554 1555 1555 1555 1556 1556 1556 1556 1556 1557 1557 1557 1557 1557 1557 1557 1557 1557 1557 1557 1557 1557 1556 1556 1555 1554 1554 1553 1552 1551 1550 1549 1548 1547 1546 1545 1543 1542 1541 1540
1553 1553 1553 1553 1554 1554 1554 1555 1555 1555 1555 1555 1556 1556 1556 1556 1556 1556 1557 1557 1556 1557 1557 1557 1557 1557 1556 1555 1555 1554 1553 1553 1552 1551 1550 1549 1548 1547 1545 1544 1543 1541 1541
1552 1552 1552 1552 1553 1553 1553 1554 1554 1554 1554 1554 1554 1555 1555 1554 1555 1555 1555 1556 1557 1556 1556 1556 1556 1556 1556 1555 1555 1554 1553 1552 1552 1551 1550 1549 1548 1547 1546 1544 1543 1542 1541
1551 1551 1551 1551 1552 1552 1552 1553 1553 1553 1553 1553 1553 1553 1553 1553 1554 1554 1554 1555 1555 1555 1555 1555 1555 1555 1555 1555 1554 1554 1553 1552 1551 1550 1550 1549 1548 1547 1545 1544 1543 1542 1541
1549 1550 1550 1550 1550 1551 1551 1551 1552 1552 1552 1552 1552 1552 1552 1552 1552 1552 1553 1553 1553 1554 1553 1554 1554 1554 1554 1554 1553 1553 1552 1551 1551 1550 1549 1548 1547 1546 1545 1544 1543 1542 1541
1548 1548 1548 1549 1549 1549 1550 1550 1550 1550 1551 1550 1550 1550 1550 1550 1550 1551 1551 1551 1552 1552 1552 1552 1552 1552 1552 1552 1552 1552 1551 1551 1550 1549 1548 1547 1546 1545 1544 1543 1542 1541 1540
1546 1546 1546 1547 1547 1548 1548 1549 1549 1549 1549 1549 1549 1549 1549 1549 1549 1549 1549 1550 1550 1550 1550 1550 1550 1550 1550 1550 1550 1550 1550 1549 1549 1548 1547 1546 1545 1544 1543 1542 1541 1540 1539
1544 1544 1544 1545 1545 1546 1547 1547 1547 1547 1547 1547 1547 1547 1547 1547 1547 1548 1548 1548 1548 1548 1548 1548 1548 1548 1548 1548 1548 1548 1548 1547 1547 1546 1545 1545 1544 1543 1542 1541 1540 1539 1538
1542 1542 1542 1543 1544 1544 1545 1545 1545 1546 1546 1546 1546 1546 1546 1546 1546 1546 1546 1546 1546 1546 1546 1546 1546 1546 1546 1546 1546 1546 1546 1545 1545 1544 1544 1543 1542 1541 1540 1539 1538 1537 1536
1539 1540 1540 1541 1541 1542 1542 1543 1543 1543 1543 1544 1544 1544 1544 1544 1544 1544 1544 1543 1544 1544 1543 1543 1543 1543 1543 1543 1543 1543 1543 1543 1542 1542 1541 1541 1540 1539 1538 1537 1536 1535 1534
1537 1537 1538 1538 1539 1540 1540 1541 1541 1541 1541 1541 1541 1541 1541 1541 1541 1541 1541 1541 1541 1541 1541 1541 1541 1540 1540 1541 1541 1540 1540 1540 1539 1540 1539 1537 1537 1536 1536 1534 1534 1533 1531
1534 1534 1535 1536 1536 1537 1537 1538 1538 1538 1538 1538 1538 1538 1538 1538 1538 1538 1538 1538 1538 1538 1538 1537 1538 1537 1538 1538 1538 1538 1537 1537 1537 1537 1536 1535 1534 1533 1533 1532 1531 1530 1529
1531 1531 1532 1532 1533 1533 1534 1535 1535 1535 1535 1535 1535 1535 1535 1535 1535 1535 1535 1535 1534 1534 1535 1534 1534 1534 1535 1535 1535 1535 1534 1534 1533 1533 1533 1532 1530 1530 1529 1529 1528 1527 1526
1527 1528 1528 1529 1530 1530 1531 1531 1532 1532 1531 1531 1532 1532 1532 1532 1532 1532 1532 1531 1531 1531 1531 1531 1531 1531 1531 1531 1531 1531 1531 1530 1529 1529 1528 1528 1527 1526 1525 1525 1524 1524 1523